�������l�o���
Date,Time,MP-1(��Sv/h),MP-2(��Sv/h),MP-3(��Sv/h),MP-4(��Sv/h),MP-5(��Sv/h),MP-6(��Sv/h),MP-7(��Sv/h),MP-8(��Sv/h),����,����(m/s),���J
2023/04/20,00:00,0.563,0.824,0.496,1.028,0.729,0.325,0.579,0.546,�k�k��,4.2,��
2023/04/20,00:10,0.564,0.826,0.499,1.027,0.728,0.326,0.577,0.546,�k�k��,4.4,��
2023/04/20,00:20,0.564,0.825,0.498,1.028,0.729,0.325,0.578,0.544,�k,4.3,��
2023/04/20,00:30,0.563,0.824,0.497,1.028,0.728,0.325,0.579,0.546,�k,4.3,��
2023/04/20,00:40,0.563,0.824,0.495,1.031,0.728,0.325,0.579,0.545,�k�k��,4.8,��
2023/04/20,00:50,0.563,0.825,0.498,1.027,0.726,0.325,0.580,0.547,�k�k��,4.5,��
2023/04/20,01:00,0.563,0.825,0.499,1.027,0.728,0.326,0.579,0.546,�k�k��,4.2,��
2023/04/20,01:10,0.564,0.823,0.497,1.029,0.727,0.324,0.578,0.547,�k�k��,3.5,��
2023/04/20,01:20,0.563,0.825,0.495,1.027,0.728,0.324,0.579,0.546,�k�k��,3.4,��
2023/04/20,01:30,0.563,0.824,0.497,1.027,0.728,0.325,0.578,0.545,�k�k��,3.4,��
2023/04/20,01:40,0.562,0.823,0.496,1.030,0.728,0.323,0.578,0.545,�k�k��,2.5,��
2023/04/20,01:50,0.563,0.823,0.497,1.030,0.729,0.324,0.578,0.546,�k�k��,3.3,��
2023/04/20,02:00,0.564,0.823,0.496,1.027,0.728,0.325,0.578,0.544,�k�k��,2.3,��
2023/04/20,02:10,0.562,0.823,0.498,1.028,0.727,0.325,0.579,0.545,�k�k��,2.8,��
2023/04/20,02:20,0.564,0.824,0.497,1.030,0.727,0.326,0.579,0.546,�k��,2.0,��
2023/04/20,02:30,0.561,0.824,0.496,1.028,0.727,0.325,0.577,0.546,�k�k��,1.7,��
2023/04/20,02:40,0.562,0.823,0.497,1.026,0.728,0.326,0.578,0.544,�k�k��,1.7,��
2023/04/20,02:50,0.564,0.823,0.496,1.026,0.728,0.325,0.579,0.546,�k�k��,1.5,��
2023/04/20,03:00,0.562,0.823,0.497,1.027,0.728,0.325,0.578,0.546,�k�k��,2.0,��
2023/04/20,03:10,0.562,0.824,0.499,1.027,0.728,0.324,0.578,0.546,�k�k��,2.0,��
2023/04/20,03:20,0.562,0.824,0.497,1.026,0.727,0.326,0.579,0.544,�k,2.5,��
2023/04/20,03:30,0.563,0.823,0.497,1.029,0.728,0.324,0.578,0.545,�k,2.6,��
2023/04/20,03:40,0.564,0.823,0.497,1.027,0.728,0.324,0.578,0.546,�k,2.3,��
2023/04/20,03:50,0.563,0.823,0.498,1.030,0.729,0.324,0.577,0.545,�k,2.3,��
2023/04/20,04:00,0.563,0.822,0.496,1.027,0.728,0.324,0.578,0.545,�k�k��,1.9,��
2023/04/20,04:10,0.562,0.822,0.496,1.027,0.726,0.324,0.580,0.547,�k�k��,0.9,��
2023/04/20,04:20,0.563,0.822,0.497,1.028,0.729,0.325,0.578,0.546,�k�k��,1.7,��
2023/04/20,04:30,0.562,0.822,0.496,1.029,0.726,0.324,0.580,0.546,�k,1.7,��
2023/04/20,04:40,0.563,0.823,0.497,1.028,0.725,0.324,0.578,0.546,�k�k��,1.4,��
2023/04/20,04:50,0.564,0.823,0.497,1.029,0.727,0.324,0.577,0.545,�k��,1.5,��
2023/04/20,05:00,0.561,0.823,0.496,1.026,0.726,0.323,0.578,0.546,�k��,2.0,��
2023/04/20,05:10,0.561,0.823,0.495,1.027,0.726,0.325,0.579,0.546,�k�k��,2.0,��
2023/04/20,05:20,0.564,0.821,0.495,1.027,0.726,0.325,0.579,0.546,�k�k��,1.8,��
2023/04/20,05:30,0.563,0.823,0.496,1.026,0.727,0.324,0.578,0.547,�k,1.2,��
2023/04/20,05:40,0.564,0.826,0.495,1.026,0.727,0.325,0.578,0.547,�k�k��,0.6,��
2023/04/20,05:50,0.562,0.821,0.497,1.027,0.727,0.324,0.578,0.546,-,CALM,��
2023/04/20,06:00,0.562,0.824,0.496,1.027,0.727,0.324,0.579,0.545,-,CALM,��
2023/04/20,06:10,0.562,0.821,0.497,1.026,0.727,0.324,0.578,0.547,�k,0.6,��
2023/04/20,06:20,0.562,0.825,0.497,1.027,0.727,0.325,0.580,0.546,�k�k��,0.9,��
2023/04/20,06:30,0.565,0.822,0.496,1.030,0.727,0.324,0.580,0.545,�k,1.1,��
2023/04/20,06:40,0.562,0.823,0.497,1.028,0.728,0.325,0.579,0.545,�k�k��,0.9,��
2023/04/20,06:50,0.563,0.824,0.496,1.027,0.727,0.324,0.579,0.546,�k,1.1,��
2023/04/20,07:00,0.564,0.825,0.498,1.026,0.728,0.325,0.580,0.546,�k,1.5,��
2023/04/20,07:10,0.564,0.824,0.497,1.027,0.726,0.325,0.579,0.545,�k�k��,1.5,��
2023/04/20,07:20,0.563,0.824,0.497,1.027,0.728,0.322,0.581,0.547,�k,1.5,��
2023/04/20,07:30,0.564,0.823,0.497,1.027,0.730,0.323,0.582,0.546,�k�k��,1.5,��
2023/04/20,07:40,0.565,0.824,0.499,1.029,0.726,0.322,0.582,0.548,�k,1.5,��
2023/04/20,07:50,0.564,0.823,0.498,1.030,0.728,0.323,0.578,0.545,�k,2.3,��
2023/04/20,08:00,0.565,0.822,0.496,1.030,0.727,0.324,0.580,0.547,�k,2.2,��
2023/04/20,08:10,0.565,0.823,0.498,1.029,0.728,0.323,0.579,0.546,�k,1.5,��
2023/04/20,08:20,0.565,0.823,0.497,1.031,0.727,0.322,0.580,0.545,�k��,1.5,��
2023/04/20,08:30,0.565,0.821,0.497,1.029,0.727,0.323,0.579,0.545,���k��,0.9,��
2023/04/20,08:40,0.562,0.820,0.497,1.030,0.727,0.323,0.578,0.545,���k��,1.5,��
2023/04/20,08:50,0.563,0.820,0.496,1.027,0.726,0.323,0.578,0.543,��,1.2,��
2023/04/20,09:00,0.563,0.821,0.497,1.028,0.726,0.323,0.577,0.542,���k��,1.2,��
2023/04/20,09:10,0.562,0.823,0.497,1.029,0.726,0.324,0.578,0.544,�k��,1.9,��
2023/04/20,09:20,0.565,0.822,0.498,1.031,0.730,0.322,0.578,0.544,��,2.3,��
2023/04/20,09:30,0.563,0.824,0.495,1.029,0.727,0.324,0.579,0.543,���k��,2.5,��
2023/04/20,09:40,0.563,0.823,0.499,1.030,0.726,0.323,0.577,0.543,���k��,2.3,��
2023/04/20,09:50,0.563,0.822,0.496,1.030,0.728,0.323,0.577,0.545,���쓌,2.9,��
2023/04/20,10:00,0.563,0.824,0.496,1.031,0.727,0.324,0.578,0.545,��,2.2,��
2023/04/20,10:10,0.564,0.825,0.498,1.029,0.727,0.324,0.576,0.545,���k��,2.0,��
2023/04/20,10:20,0.562,0.823,0.496,1.031,0.729,0.323,0.576,0.545,�k��,1.7,��
2023/04/20,10:30,0.563,0.824,0.497,1.031,0.728,0.324,0.577,0.546,���k��,2.0,��
2023/04/20,10:40,0.565,0.825,0.495,1.030,0.730,0.324,0.578,0.547,���k��,1.7,��
2023/04/20,10:50,0.566,0.823,0.497,1.031,0.729,0.321,0.578,0.546,��,2.0,��
2023/04/20,11:00,0.564,0.825,0.496,1.032,0.729,0.324,0.577,0.546,���쓌,2.3,��
2023/04/20,11:10,0.564,0.824,0.496,1.032,0.729,0.324,0.579,0.546,�쓌,3.1,��
2023/04/20,11:20,0.564,0.823,0.497,1.034,0.731,0.324,0.579,0.547,�쓌,2.6,��
2023/04/20,11:30,0.564,0.826,0.498,1.032,0.730,0.323,0.578,0.546,�쓌,3.9,��
2023/04/20,11:40,0.565,0.826,0.498,1.031,0.731,0.322,0.579,0.545,�쓌,3.3,��
2023/04/20,11:50,0.566,0.826,0.499,1.032,0.730,0.324,0.579,0.546,�쓌,3.4,��
2023/04/20,12:00,0.566,0.826,0.498,1.027,0.732,0.324,0.579,0.547,�쓌,3.5,��
2023/04/20,12:10,0.566,0.827,0.497,1.030,0.730,0.323,0.579,0.546,�쓌,3.6,��
2023/04/20,12:20,0.566,0.827,0.499,1.030,0.731,0.324,0.579,0.547,�쓌,3.6,��
2023/04/20,12:30,0.566,0.827,0.499,1.032,0.731,0.325,0.580,0.546,�쓌,3.9,��
2023/04/20,12:40,0.566,0.827,0.498,1.030,0.730,0.325,0.580,0.547,��쓌,4.2,��
2023/04/20,12:50,0.569,0.827,0.499,1.031,0.731,0.326,0.579,0.545,��쓌,8.5,��
2023/04/20,13:00,0.566,0.827,0.498,1.032,0.734,0.325,0.582,0.547,��쓌,10.9,��
2023/04/20,13:10,0.569,0.825,0.498,1.030,0.731,0.325,0.581,0.547,��쓌,10.6,��
2023/04/20,13:20,0.567,0.826,0.499,1.033,0.732,0.326,0.583,0.547,��쓌,13.1,��
2023/04/20,13:30,0.567,0.827,0.499,1.032,0.731,0.327,0.580,0.548,��쓌,13.3,��
2023/04/20,13:40,0.567,0.825,0.500,1.031,0.732,0.325,0.581,0.547,��쓌,13.3,��
2023/04/20,13:50,0.567,0.826,0.499,1.031,0.733,0.325,0.580,0.546,��쓌,12.8,��
2023/04/20,14:00,0.568,0.826,0.499,1.031,0.730,0.325,0.581,0.547,��쓌,14.7,��
2023/04/20,14:10,0.566,0.827,0.499,1.032,0.732,0.326,0.580,0.546,��쓌,12.8,��
2023/04/20,14:20,0.569,0.828,0.501,1.034,0.731,0.326,0.581,0.548,��쓌,11.7,��
2023/04/20,14:30,0.567,0.826,0.498,1.030,0.732,0.325,0.580,0.547,��쓌,10.3,��
2023/04/20,14:40,0.569,0.826,0.502,1.032,0.733,0.327,0.580,0.547,��,10.3,��
2023/04/20,14:50,0.567,0.827,0.499,1.030,0.733,0.326,0.581,0.548,��,9.4,��
2023/04/20,15:00,0.568,0.828,0.501,1.030,0.733,0.326,0.582,0.546,��,6.9,��
2023/04/20,15:10,0.569,0.828,0.500,1.030,0.733,0.326,0.581,0.546,��,9.7,��
2023/04/20,15:20,0.568,0.828,0.497,1.031,0.731,0.325,0.582,0.547,��,8.8,��
2023/04/20,15:30,0.567,0.829,0.499,1.031,0.733,0.326,0.582,0.546,��,9.2,��
2023/04/20,15:40,0.569,0.828,0.500,1.029,0.733,0.326,0.583,0.547,��,7.7,��
2023/04/20,15:50,0.567,0.828,0.501,1.030,0.733,0.327,0.582,0.546,��,7.7,��
2023/04/20,16:00,0.569,0.826,0.499,1.028,0.731,0.327,0.580,0.546,��,7.6,��
2023/04/20,16:10,0.568,0.827,0.500,1.031,0.731,0.327,0.581,0.548,��,7.2,��
2023/04/20,16:20,0.567,0.827,0.500,1.031,0.733,0.327,0.581,0.546,��,7.7,��
2023/04/20,16:30,0.567,0.828,0.500,1.027,0.733,0.326,0.582,0.547,��,6.7,��
2023/04/20,16:40,0.567,0.828,0.501,1.031,0.733,0.325,0.582,0.548,��,6.3,��
2023/04/20,16:50,0.567,0.827,0.500,1.029,0.732,0.325,0.582,0.546,��,6.9,��
2023/04/20,17:00,0.567,0.825,0.499,1.030,0.732,0.326,0.582,0.547,��,7.7,��
2023/04/20,17:10,0.570,0.826,0.500,1.031,0.732,0.327,0.582,0.546,��,8.0,��
2023/04/20,17:20,0.568,0.829,0.499,1.030,0.733,0.327,0.581,0.547,��,6.8,��
2023/04/20,17:30,0.569,0.827,0.501,1.029,0.733,0.327,0.581,0.549,��,6.4,��
2023/04/20,17:40,0.565,0.828,0.500,1.030,0.731,0.327,0.580,0.545,��,6.3,��
2023/04/20,17:50,0.567,0.828,0.498,1.033,0.733,0.326,0.580,0.547,��쐼,7.1,��
2023/04/20,18:00,0.567,0.829,0.500,1.033,0.731,0.327,0.581,0.548,��,7.0,��
2023/04/20,18:10,0.569,0.826,0.499,1.032,0.731,0.328,0.581,0.549,��,7.7,��
2023/04/20,18:20,0.567,0.828,0.500,1.034,0.732,0.327,0.581,0.549,��,8.6,��
2023/04/20,18:30,0.568,0.830,0.499,1.035,0.734,0.327,0.581,0.548,��쐼,8.1,��
2023/04/20,18:40,0.567,0.830,0.499,1.034,0.734,0.328,0.582,0.549,��쐼,7.7,��
2023/04/20,18:50,0.568,0.831,0.498,1.034,0.735,0.328,0.582,0.549,��쐼,7.8,��
2023/04/20,19:00,0.567,0.830,0.500,1.035,0.735,0.328,0.583,0.550,��쐼,7.5,��
2023/04/20,19:10,0.569,0.831,0.501,1.034,0.736,0.328,0.583,0.548,��쐼,7.7,��
2023/04/20,19:20,0.567,0.832,0.503,1.034,0.735,0.329,0.582,0.548,��쐼,6.6,��
2023/04/20,19:30,0.568,0.832,0.501,1.033,0.735,0.326,0.582,0.548,��쐼,6.2,��
2023/04/20,19:40,0.570,0.830,0.503,1.033,0.735,0.327,0.583,0.549,��,4.6,��
2023/04/20,19:50,0.568,0.829,0.503,1.033,0.735,0.328,0.583,0.551,��,4.6,��
2023/04/20,20:00,0.567,0.832,0.502,1.033,0.735,0.327,0.584,0.548,��,4.8,��
2023/04/20,20:10,0.569,0.831,0.501,1.034,0.737,0.327,0.581,0.547,��,6.0,��
2023/04/20,20:20,0.568,0.831,0.501,1.034,0.735,0.328,0.583,0.548,��,6.2,��
2023/04/20,20:30,0.569,0.830,0.501,1.033,0.734,0.329,0.582,0.548,��,5.4,��
2023/04/20,20:40,0.569,0.830,0.502,1.033,0.734,0.327,0.582,0.548,��,5.0,��
2023/04/20,20:50,0.570,0.830,0.501,1.034,0.734,0.328,0.581,0.549,��,4.3,��
2023/04/20,21:00,0.571,0.829,0.500,1.034,0.734,0.328,0.583,0.549,��쐼,4.3,��
2023/04/20,21:10,0.570,0.831,0.502,1.034,0.733,0.330,0.581,0.549,��,4.5,��
2023/04/20,21:20,0.570,0.830,0.502,1.032,0.735,0.328,0.583,0.550,��,4.6,��
2023/04/20,21:30,0.570,0.830,0.501,1.033,0.736,0.327,0.581,0.549,��,4.1,��
2023/04/20,21:40,0.572,0.830,0.502,1.034,0.734,0.328,0.583,0.549,��쐼,3.2,��
2023/04/20,21:50,0.571,0.830,0.503,1.034,0.735,0.328,0.581,0.549,��쐼,2.3,��
2023/04/20,22:00,0.570,0.829,0.502,1.035,0.734,0.327,0.581,0.548,��,0.9,��
2023/04/20,22:10,0.569,0.828,0.501,1.036,0.735,0.329,0.582,0.550,��,1.2,��
2023/04/20,22:20,0.571,0.829,0.501,1.034,0.733,0.329,0.582,0.549,��,0.9,��
2023/04/20,22:30,0.569,0.830,0.502,1.034,0.734,0.328,0.582,0.549,���쐼,3.3,��
2023/04/20,22:40,0.572,0.829,0.501,1.033,0.735,0.328,0.582,0.549,��,4.4,��
2023/04/20,22:50,0.571,0.830,0.503,1.033,0.735,0.328,0.583,0.549,���쐼,4.3,��
2023/04/20,23:00,0.571,0.830,0.503,1.034,0.734,0.328,0.583,0.549,��,5.6,��
2023/04/20,23:10,0.570,0.828,0.501,1.034,0.735,0.328,0.582,0.548,��,9.1,��
2023/04/20,23:20,0.570,0.830,0.503,1.033,0.735,0.327,0.582,0.548,���쐼,8.4,��
2023/04/20,23:30,0.573,0.828,0.504,1.033,0.734,0.328,0.582,0.547,�쐼,8.8,��
2023/04/20,23:40,0.569,0.830,0.502,1.033,0.734,0.330,0.582,0.548,�쐼,8.1,��
2023/04/20,23:50,0.571,0.829,0.503,1.035,0.734,0.329,0.583,0.549,�쐼,7.6,��
